TimeEST,TemperatureF,Dew PointF,Humidity,Sea Level PressureIn,VisibilityMPH,Wind Direction,Wind SpeedMPH,Gust SpeedMPH,PrecipitationIn,Events,Conditions,WindDirDegrees,DateUTC
12:54 AM,5.0,-9.0,52,30.35,10.0,WNW,4.6,-,N/A,,Clear,300,2013-01-25 05:54:00
1:54 AM,3.9,-9.0,55,30.36,10.0,Variable,3.5,-,N/A,,Clear,0,2013-01-25 06:54:00
2:54 AM,3.9,-9.9,53,30.35,10.0,West,6.9,-,N/A,,Clear,270,2013-01-25 07:54:00
4:54 AM,1.9,-9.9,58,30.36,10.0,West,5.8,-,N/A,,Clear,280,2013-01-25 09:54:00
5:54 AM,1.9,-9.9,58,30.37,10.0,West,4.6,-,N/A,,Clear,280,2013-01-25 10:54:00
6:54 AM,1.0,-9.9,60,30.38,10.0,Calm,Calm,-,N/A,,Clear,0,2013-01-25 11:54:00
7:54 AM,-0.0,-7.1,72,30.39,10.0,Calm,Calm,-,N/A,,Clear,0,2013-01-25 12:54:00
8:54 AM,3.0,-9.0,57,30.39,10.0,West,4.6,-,N/A,,Clear,270,2013-01-25 13:54:00
9:54 AM,5.0,-9.0,52,30.38,10.0,Calm,Calm,-,N/A,,Clear,0,2013-01-25 14:54:00
10:54 AM,8.1,-7.1,50,30.34,10.0,North,5.8,-,N/A,,Clear,10,2013-01-25 15:54:00
11:54 AM,10.9,-7.1,44,30.31,10.0,NNW,4.6,-,N/A,,Clear,330,2013-01-25 16:54:00
12:54 PM,12.9,-8.0,39,30.27,10.0,North,5.8,-,N/A,,Clear,350,2013-01-25 17:54:00
2:54 PM,14.0,-8.0,37,30.20,10.0,Calm,Calm,-,N/A,,Scattered Clouds,0,2013-01-25 19:54:00
3:54 PM,14.0,-8.0,37,30.19,10.0,NNW,4.6,-,N/A,,Scattered Clouds,340,2013-01-25 20:54:00
4:54 PM,12.9,-8.0,39,30.18,10.0,Calm,Calm,-,N/A,,Mostly Cloudy,0,2013-01-25 21:54:00
5:54 PM,12.9,-8.0,39,30.16,10.0,Calm,Calm,-,N/A,,Overcast,0,2013-01-25 22:54:00
6:54 PM,14.0,-6.0,41,30.12,10.0,Calm,Calm,-,N/A,,Overcast,0,2013-01-25 23:54:00
7:46 PM,12.2,1.4,62,30.07,2.5,SW,3.5,-,0.00,Snow,Light Snow,230,2013-01-26 00:46:00
7:54 PM,12.0,3.0,67,30.12,1.8,Calm,Calm,-,0.00,Snow,Light Snow,0,2013-01-26 00:54:00
8:06 PM,12.2,3.2,67,30.06,2.0,Calm,Calm,-,0.00,Snow,Light Snow,0,2013-01-26 01:06:00
8:33 PM,12.2,5.0,73,30.05,2.5,Calm,Calm,-,0.00,Snow,Light Snow,0,2013-01-26 01:33:00
8:54 PM,12.0,6.1,77,30.10,3.0,Calm,Calm,-,0.00,Snow,Light Snow,0,2013-01-26 01:54:00
9:23 PM,12.2,6.8,79,30.04,2.0,Calm,Calm,-,0.00,Snow,Light Snow,0,2013-01-26 02:23:00
9:45 PM,10.4,6.8,85,30.03,3.0,Calm,Calm,-,0.00,Snow,Light Snow,0,2013-01-26 02:45:00
9:54 PM,10.9,6.1,81,30.09,2.5,Calm,Calm,-,0.00,Snow,Light Snow,0,2013-01-26 02:54:00
10:22 PM,12.2,6.8,79,30.03,2.0,Calm,Calm,-,0.00,Snow,Light Snow,0,2013-01-26 03:22:00
10:32 PM,10.4,6.8,85,30.03,1.8,Calm,Calm,-,0.01,Snow,Light Snow,0,2013-01-26 03:32:00
10:46 PM,10.4,6.8,85,30.03,2.5,Calm,Calm,-,0.01,Snow,Light Snow,0,2013-01-26 03:46:00
10:54 PM,12.0,7.0,80,30.09,3.0,Calm,Calm,-,0.01,Snow,Light Snow,0,2013-01-26 03:54:00
11:02 PM,10.4,6.8,85,30.03,2.0,Calm,Calm,-,0.00,Snow,Light Snow,0,2013-01-26 04:02:00
11:15 PM,10.4,6.8,85,30.03,5.0,North,3.5,-,0.00,,Overcast,350,2013-01-26 04:15:00
11:54 PM,10.9,6.1,81,30.07,2.5,NNW,3.5,-,0.00,Snow,Light Snow,330,2013-01-26 04:54:00